Regional Weather Roundup
Issued by NWS

Home | Current Version | Previous Version | Graphics & Text | Print | Product List | Glossary On
Versions: 1 2 3 4 5 6 7 8 9 10 11 12 13 14 15 16 17 18 19 20 21 22 23 24 25 26 27 28 29 30 31 32 33 34 35 36 37 38 39 40 41 42 43 44 45 46 47 48 49 50
703
ASUS45 KTFX 221010
RWRMT
MONTANA REGIONAL WEATHER ROUNDUP
NATIONAL WEATHER SERVICE GREAT FALLS MT
300 AM MST WED FEB 22 2017

NOTE: "FAIR" INDICATES FEW OR NO CLOUDS BELOW 12000 FEET WITH NO
SIGNIFICANT WEATHER AND/OR OBSTRUCTIONS TO VISIBILITY.

MTZ001>007-043-221100-
WEST OF THE DIVIDE

CITY           SKY/WX    TMP DP  RH WIND       PRES   REMARKS
KALISPELL      CLOUDY    32  32 100 S5        29.89R
MISSOULA       CLOUDY    33  31  92 CALM      29.94R
BUTTE          CLOUDY    31  20  63 NW3       29.85R
MULLAN PASS    SNOW      24  22  91 CALM      29.85R VSB 1/2
ANACONDA         N/A     30  23  74 W7        29.86R WCI  23
DEER LODGE       N/A     30  27  86 NW9       29.88S WCI  22
EUREKA           N/A     28  28 100 CALM      29.90R
HAMILTON         N/A     36  27  69 S6        29.93R WCI  31
LIBBY            N/A     32  32 100 CALM      29.92R VSB 3/4
PLAINS           N/A     33  28  82 CALM      29.95R
RONAN            N/A     34  32  92 SE1       29.96R
$$

MTZ008-052>055-221100-
SOUTHWEST MONTANA

CITY           SKY/WX    TMP DP  RH WIND       PRES   REMARKS
BOZEMAN        CLOUDY    36  25  64 W15       29.86R WCI  27
DILLON         CLOUDY    32  18  56 SW9       29.86S WCI  24
W YELLOWSTONE  CLOUDY    27  21  80 SW3       29.89R
ENNIS          CLOUDY    34  14  44 S8        29.91R WCI  27
THREE FORKS      N/A     35 -37   4 SW7       29.86R WCI  29
TWIN BRIDGES     N/A     32  24  72 N5        29.88R
$$

MTZ009-010-012-014-046-048-049-054-221100-
EAST SLOPES AND CENTRAL MONTANA

CITY           SKY/WX    TMP DP  RH WIND       PRES   REMARKS
CUT BANK       CLOUDY    26  25  96 SW3       29.79R
GREAT FALLS    FOG       32  30  92 NW6       29.81S VSB 1   WCI  26
MALMSTROM AFB  LGT RAIN  32  32 100 W5        29.82S
HELENA         CLOUDY    37  27  67 W15G22    29.83R WCI  28
AUGUSTA        FOG       29  29 100 W3        29.79S VSB 1/8
BOWMANS CRNR   FOG       28  28 100 S5        29.78S VSB 3/8
CHOTEAU          N/A     28  28 100 SW5       29.82R
CONRAD           N/A     28  28 100 N2        29.84S
POWER            N/A     31  31 100 SW9       29.80R WCI  23
RAYNESFORD     FLURRIES  32  31  98 W9        29.80R WCI  24
ULM            CLOUDY    32  32 100 MISG      29.82R
$$

MTZ011-013-016-021-045-047-050-051-221100-
NORTH CENTRAL MONTANA

CITY           SKY/WX    TMP DP  RH WIND       PRES   REMARKS
HAVRE          LGT SNOW  32  32 100 E8        29.81R FOG     WCI  25
LEWISTOWN      FOG       30  29  96 NW16      29.76R VSB 1/2 WCI  19
N BAR RANCH    CLOUDY    32  28  86 W18G29    29.75R WCI  20
CHINOOK          N/A     32  32 100 CALM      29.83R
DENTON         FLURRIES  32  31  98 NW14G24   29.75R WCI  22
GEYSER         MOCLDY    31  29  94 W9        29.78R WCI  23
GRASS RANGE    CLOUDY    34  30  85 NW17G23   29.71R WCI  23
JUDITH GAP     SNOWSHWR  31  30  95 N12       29.76R WCI  22
ROY            LGT RAIN  31  31  99 MISG      29.74R FOG
STANFORD       MOCLDY    31  29  96 NW22      29.77R WCI  18
WINIFRED       SNOW      32 N/A N/A W7        29.76R VSB 1/2 WCI  26
$$

MTZ017>020-022>027-061-062-221100-
NORTHEAST MONTANA

CITY           SKY/WX    TMP DP  RH WIND       PRES   REMARKS
GLASGOW        LGT SNOW  32  29  88 NE8       29.77R FOG     WCI  25
JORDAN           N/A     32  30  92 N13       29.71R WCI  22
SIDNEY         LGT SNOW  33  31  92 N6        29.74R FOG     WCI  28
WOLF POINT     LGT SNOW  34  32  92 NE9       29.78R VSB 1   WCI  27
PLENTYWOOD       N/A     30  28  93 N16       29.76R WCI  19
POPLAR           N/A     32  30  93 N10       29.77R WCI  24
SCOBEY           N/A     30  23  75 N8        29.77R WCI  22
$$

MTZ028>42-056>058-221100-
SOUTHCENTRAL AND SOUTHEAST MONTANA

CITY           SKY/WX    TMP DP  RH WIND       PRES   REMARKS
BAKER          FOG       34  34 100 W3        29.68S VSB 1/4
BILLINGS       CLOUDY    42  22  44 W15       29.75R
LIVINGSTON     CLOUDY    36  23  59 W29G37    29.79S WCI  23
MILES CITY     MOCLDY    34  32  92 NW5       29.69S
BIG TIMBER     PTCLDY    36  23  60 W21G30    29.80R WCI  24
EKALAKA          N/A     38  32  79 CALM      29.68R
FORSYTH          N/A     36  36 100 SW7       29.70S WCI  30
HARLOWTON      CLOUDY    35  27  71 NW21      29.76R WCI  24
LAUREL           N/A     39  22  51 SW2       29.76R
$$

REGIONAL REPORTS...DAKOTAS

CITY           SKY/WX    TMP DP  RH WIND       PRES   REMARKS
WILLISTON      LGT SNOW  33  32  96 NE15      29.74R FOG     WCI  23
MINOT          LGT SNOW  34  31  88 N15       29.71R FOG     WCI  24
DICKINSON      CLOUDY    34  32  92 N9        29.65F FOG     WCI  27
WATFORD CITY   MIX PCPN  32  32 100 N8        29.73R WCI  25
BISMARCK       PTCLDY    32  31  96 NE5       29.67R
GRAND FORKS    MIX PCPN  32  28  85 N9        29.68F FOG     WCI  24
FARGO          FOG       34  34 100 N9        29.64F VSB 1/4 WCI  27
BUFFALO SD       N/A     38  34  85 NW14      29.62R WCI  30
RAPID CITY     MOCLDY    42  36  79 S6        29.68S
$$

REGIONAL REPORTS...WYOMING/IDAHO/WASHINGTON

CITY           SKY/WX    TMP DP  RH WIND       PRES   REMARKS
GILLETTE       CLOUDY    41  31  67 W14       29.73S
SHERIDAN       CLEAR     40  19  43 N12       29.73R
BUFFALO WY     CLOUDY    42  16  34 SW23      29.74F
CODY           CLEAR     35  23  61 SW21G29   29.81S WCI  24
YELLOWSTONE LA   N/A     22  17  81 VRB6      29.89R WCI  14
IDAHO FALLS    CLOUDY    31  28  89 SW21      29.97F WCI  18
SALMON         CLOUDY    34  28  80 N8        29.92R WCI  27
BOISE          PTCLDY    35  27  72 S3        30.06R
SPOKANE        FOG       32  31  96 S3        29.99R VSB 1
$$

REGIONAL REPORTS...ALBERTA

CITY           SKY/WX    TMP DP  RH WIND       PRES   REMARKS
EDMONTON       CLOUDY    25  19  80 N7        29.90R WCI  17
CALGARY          N/A     25  23  93 N18G25    29.81R FOG     WCI  11
LETHBRIDGE     CLOUDY    32 N/A N/A NW2       29.81R
MEDICINE HAT   CLOUDY    32  30  93 E3        29.83R
WATERTON GATE    N/A     32  23  69 SW10G17     N/A  WCI  24
CARDSTON         N/A     23  21  93 S5          N/A
MILK RIVER       N/A     27  27 100 SE2         N/A
$$

REGIONAL REPORTS...SASKATCHEWAN

CITY           SKY/WX    TMP DP  RH WIND       PRES   REMARKS
SWIFT CURRENT  MOCLDY    27  27 100 NW3       29.80R
REGINA         CLOUDY    28  25  86 NW5       29.82R
SASKATOON      CLOUDY    32  27  80 W7        29.85R WCI  26
CYPRESS HILLS    N/A     25  23  93 N5          N/A
VAL MARIE        N/A     30  28  93 NE9         N/A  WCI  22
ROCKGLEN         N/A     28  27  93 N12         N/A  WCI  18
ASSINIBOIA       N/A     27  23  86 N14         N/A  WCI  15
$$




USA.gov is the U.S. government's official web portal to all federal, state and local government web resources and services.